Regional Weather Roundup
Issued by NWS Wilmington, NC

Home | Current Version | Previous Version | Text Only | Print | Product List | Glossary On
Versions: 1 2 3 4 5 6 7 8 9 10 11 12 13 14 15 16 17 18 19 20 21 22 23 24 25 26 27 28 29 30 31 32 33 34 35 36 37 38 39 40 41 42 43 44 45 46 47 48 49 50
000
ASUS42 KILM 301713
RWRILM
RWRILM
REGIONAL HOURLY WEATHER ROUNDUP
NATIONAL WEATHER SERVICE WILMINGTON NC
100 PM EDT SAT MAY 30 2015

NOTE: "FAIR" INDICATES FEW OR NO CLOUDS BELOW 12,000 FEET WITH NO
SIGNIFICANT WEATHER AND/OR OBSTRUCTIONS TO VISIBILITY.

...............WFO WILMINGTON COUNTY WARNING AREA...............

......COASTAL NC AND SC COUNTIES......

CITY           SKY/WX    TMP DP  RH WIND       PRES   REMARKS
WILMINGTON     SUNNY     81  65  58 E13       30.20F
N MYRTLE BEACH SUNNY     80  66  62 SE9       30.20F
MYRTLE BEACH   MOSUNNY   82  66  57 E10       30.21F

......INLAND NC AND SC COUNTIES.......

CITY           SKY/WX    TMP DP  RH WIND       PRES   REMARKS
LUMBERTON      MOSUNNY   85  62  46 SE5       30.18F
ELIZABETHTOWN  MOSUNNY   84  63  49 E8        30.19F
WHITEVILLE     MOSUNNY   84  64  51 SE3       30.18F
FLORENCE       MOSUNNY   86  62  44 S8        30.18F
DARLINGTON     MOSUNNY   84  63  48 E9        30.20S

....................REST OF NORTH CAROLINA......................

.........EASTERN NC.........

CITY           SKY/WX    TMP DP  RH WIND       PRES   REMARKS
CAPE HATTERAS  SUNNY     82  62  50 SE7       30.23S
JACKSONVILLE   MOSUNNY   88  61  40 S5        30.19F
MOREHEAD CITY  SUNNY     79  67  66 SE9       30.21F
KENANSVILLE    SUNNY     83  61  47 CALM      30.20F
NEW BERN       SUNNY     83  61  47 VRB5      30.21F
ELIZABETH CITY PTSUNNY   80  65  59 SE9       30.22F

.........CENTRAL NC.........

CITY           SKY/WX    TMP DP  RH WIND       PRES   REMARKS
RALEIGH DURHAM PTSUNNY   81  66  60 S6        30.20F
ROCKY MOUNT    CLOUDY    83  65  54 SE6       30.20F
ROANOKE RAPIDS NOT AVBL
FAYETTEVILLE   PTSUNNY   84  62  47 VRB5      30.18F
HOFFMAN        PTSUNNY   83  64  52 SE9       30.22F

.........WESTERN NC.........

CITY           SKY/WX    TMP DP  RH WIND       PRES   REMARKS
CHARLOTTE      PTSUNNY   83  60  45 SE8       30.21F
GREENSBORO     PTSUNNY   79  63  57 W5        30.21F
HICKORY        NOT AVBL
BOONE          NOT AVBL
ASHEVILLE      NOT AVBL

.....................REST OF SOUTH CAROLINA.....................

.........EASTERN SC.........

CITY           SKY/WX    TMP DP  RH WIND       PRES   REMARKS
CHARLESTON     MOSUNNY   84  65  52 E9G18     30.16F
BEAUFORT MCAS  MOSUNNY   85  69  58 SE12G20   30.15F
HILTON HEAD    PTSUNNY   81  72  74 E8G18     30.17S

.........CENTRAL SC.........

CITY           SKY/WX    TMP DP  RH WIND       PRES   REMARKS
COLUMBIA       MOSUNNY   86  62  44 SE12      30.17F
ORANGEBURG     PTSUNNY   82  64  54 E7        30.17F
SUMTER SHAW    DRIZZLE   86  64  48 VRB3      30.17F

.........WESTERN SC.........

CITY           SKY/WX    TMP DP  RH WIND       PRES   REMARKS
GREENVILLE     NOT AVBL
ROCK HILL      MOSUNNY   80  63  55 VRB5      30.21F
ANDERSON       PTSUNNY   80  64  58 E8        30.20F
CLEMSON        NOT AVBL
GREENWOOD      PTSUNNY   82  64  54 E7        30.20F


...................COASTAL AND OFFSHORE REPORTS..................

................LOCAL PIERS AND NC RESERVE................


STATION/POSITION TIME  SKY/WX   TEMP    WIND        PRES    VSBY
                                AIR SEA DIR/SP/G
                 (UTC)          (F)     (DEG/KT/KT) (MB)    (MI)
JOHNY MRCER PIER 1600            77 80  120/ 10/ 14 1022.8F
NC RESRV MASNBRO NOT AVBL
OCEAN CREST PIER 1702            77 80   90/ 11/ 12 1021.7F
SPRINGMAID  PIER 1600            77 80   70/  9/ 10 1022.9F


................COASTAL AND OFFSHORE BUOYS................


STATION/POSITION TIME  SKY/WX   TEMP    WIND        PRES    VSBY
                                AIR SEA DIR/SP/G
                 (UTC)          (F)     (DEG/KT/KT) (MB)    (MI)
DIMNDSHOAL 41025 1650            76 80   90/  6/  8 1023.7S
WVE H/P(F/S)=  3/ 9 WND WVE H/P(F/S)=  2/ 4 SWL H/P/D(F/S/D)=  3/100/ 9

CAPE LOOKOUT     1700            76      90/  8/  8 1023.0F
ONSLOW BAY 41036 NOT AVBL
5 WRITEBCH 41038 1608            76 79   60/  4/  6 1023.2F
MASONBORO  41110 1619               79                N/A
WVE H/P(F/S)=  3/ 9 WND WVE H/P(F/S)=  3/ 9

WILM HARBR 41108 1611               78                N/A
WVE H/P(F/S)=  3/ 9 WND WVE H/P(F/S)=  3/ 9

27WRITEBCH 41037 1600               76   70/  8/ 10   N/A
FRYING PAN 41013 1650            77 76   80/  6/  8 1023.3F
WVE H/P(F/S)=  4/ 8 WND WVE H/P(F/S)=  2/ 4 SWL H/P/D(F/S/D)=  3/100/ 8

SUNST NRSH 41024 1608            76     120/  8/ 10 1022.8
CAPRS NRSH 41029 NOT AVBL
EDISTO     41004 1650            78 79   90/ 12/ 16 1021.5F
WVE H/P(F/S)=  5/ 8 WND WVE H/P(F/S)=  3/ 6 SWL H/P/D(F/S/D)=  3/ 8



..........OFFSHORE BUOYS BEYOND 100 NM OFFSHORE...........
.....IN A TRIANGLE---HAT TO BERMUDA TO BAHAMAS TO HAT.....


STATION/POSITION TIME  SKY/WX   TEMP    WIND        PRES    VSBY
                                AIR SEA DIR/SP/G
                 (UTC)          (F)     (DEG/KT/KT) (MB)    (MI)
150E HAT   41001 NOT AVBL
W BERMUDA  41048 1650            74 75   80/ 14/ 16 1020.9S
WVE H/P(F/S)=  8/10 WND WVE H/P(F/S)=  3/ 5 SWL H/P/D(F/S/D)=  7/110/10

ATLANTIC S 41049 1650            76 77  140/ 16/ 19 1019.3F
WVE H/P(F/S)=  5/ 8 WND WVE H/P(F/S)=  3/ 6 SWL H/P/D(F/S/D)=  3/ 70/ 8

E BAHAMAS  41046 1650            81 85  160/  4/  6 1017.1F
WVE H/P(F/S)=  5/ 9 SWL H/P/D(F/S/D)=  5/ 70/ 9

NE BAHAMAS 41047 1650            76 77   20/  8/  8 1017.1F
WVE H/P(F/S)=  6/11 WND WVE H/P(F/S)=  2/ 4 SWL H/P/D(F/S/D)=  5/ 80/11

120E CANVRL41010 1620            78 79   80/ 12/ 14 1019.8F

END



USA.gov is the U.S. government's official web portal to all federal, state and local government web resources and services.